sat.trackr.live / text

‹ back to catalog

GLOBALSTAR M092

NORAD 38043 · 2011-080D

PAYLOAD ACTIVE UNKNOWN

§ Identity

Operator
Country
GLOB
Launch date
2011-12-28
Launch site
TYMSC
Launch vehicle
Mass (kg)
RCS (m²)
4.67

Purposes: comms

External: N2YO · Heavens-Above · Gunter

§ Orbital elements

Epoch: 2026-05-25T00:31:58.467072Z

Period
114.08 min
Inclination
52.0066°
Eccentricity
0.0000228
Mean motion
12.62266891 rev/d
Perigee alt
1,413.4 km
Apogee alt
1,413.8 km
Semi-major
7,791.7 km
B*
-5.5453e-5
RAAN
135.4084°
Arg perigee
46.6292°
Mean anomaly
348.6857°
Rev number
66,512

§ Raw data

GLOBALSTAR M0921 38043U 11080D   26145.02220448 -.00000114  00000+0 -55453-4 0  99912 38043  52.0066 135.4084 0000228  46.6292 348.6857 12.62266891665129

JSON: /api/v1/satellites/38043 · /tle

For live sub-satellite position, see the globe view (requires WebGL).

§ Visibility from observer

Set your observer location to see the next 7 days of passes ≥ 10°. The values pass through the URL so the page stays shareable.

No JS? Fill the form by hand. The geolocation button needs JavaScript.